TimeCST,TemperatureF,Dew PointF,Humidity,Sea Level PressureIn,VisibilityMPH,Wind Direction,Wind SpeedMPH,Gust SpeedMPH,PrecipitationIn,Events,Conditions,WindDirDegrees,DateUTC
12:13 AM,1.4,-2.2,85,29.94,0.2,Calm,Calm,-,N/A,Fog,Light Freezing Fog,0,2013-02-24 06:13:00
12:33 AM,1.4,-2.2,85,29.94,0.2,Calm,Calm,-,N/A,Fog,Light Freezing Fog,0,2013-02-24 06:33:00
12:52 AM,1.4,-2.2,85,29.94,0.2,Calm,Calm,-,N/A,Fog,Light Freezing Fog,0,2013-02-24 06:52:00
1:13 AM,1.4,-2.2,85,29.95,0.2,Calm,Calm,-,N/A,Fog,Light Freezing Fog,0,2013-02-24 07:13:00
1:33 AM,-0.4,-2.2,92,29.95,0.2,Calm,Calm,-,N/A,Fog,Light Freezing Fog,0,2013-02-24 07:33:00
1:52 AM,-0.4,-2.2,92,29.96,0.2,Calm,Calm,-,N/A,Fog,Light Freezing Fog,0,2013-02-24 07:52:00
2:13 AM,1.4,-0.4,92,29.96,2.0,Calm,Calm,-,N/A,,Overcast,0,2013-02-24 08:13:00
2:32 AM,1.4,-0.4,92,29.95,0.5,Calm,Calm,-,N/A,Snow,Light Snow,0,2013-02-24 08:32:00
2:52 AM,1.4,-2.2,85,29.95,2.5,Calm,Calm,-,N/A,,Overcast,0,2013-02-24 08:52:00
3:13 AM,1.4,-2.2,85,29.95,7.0,Calm,Calm,-,N/A,,Overcast,0,2013-02-24 09:13:00
3:32 AM,-0.4,-4.0,85,29.95,10.0,Calm,Calm,-,N/A,,Overcast,0,2013-02-24 09:32:00
3:52 AM,-0.4,-2.2,92,29.96,10.0,Calm,Calm,-,N/A,,Overcast,0,2013-02-24 09:52:00
4:13 AM,-0.4,-2.2,92,29.97,10.0,Calm,Calm,-,N/A,,Overcast,0,2013-02-24 10:13:00
4:32 AM,-0.4,-2.2,92,29.97,0.8,Calm,Calm,-,N/A,,Overcast,0,2013-02-24 10:32:00
4:52 AM,-0.4,-2.2,92,29.98,1.5,Calm,Calm,-,N/A,,Overcast,0,2013-02-24 10:52:00
5:13 AM,-0.4,-4.0,85,29.98,0.2,Calm,Calm,-,N/A,Fog,Light Freezing Fog,0,2013-02-24 11:13:00
5:32 AM,-2.2,-5.8,85,29.98,0.2,Calm,Calm,-,N/A,Fog,Light Freezing Fog,0,2013-02-24 11:32:00
5:52 AM,-2.2,-5.8,85,29.99,0.2,Calm,Calm,-,N/A,Fog,Light Freezing Fog,0,2013-02-24 11:52:00
6:13 AM,-0.4,-4.0,85,29.99,1.2,Calm,Calm,-,N/A,,Overcast,0,2013-02-24 12:13:00
6:32 AM,-0.4,-4.0,85,29.99,10.0,Calm,Calm,-,N/A,,Overcast,0,2013-02-24 12:32:00
6:53 AM,-0.4,-2.2,92,29.99,10.0,Calm,Calm,-,N/A,,Scattered Clouds,0,2013-02-24 12:53:00
7:13 AM,1.4,-2.2,85,29.99,10.0,Calm,Calm,-,N/A,,Clear,0,2013-02-24 13:13:00
7:32 AM,1.4,-0.4,92,30.00,10.0,Calm,Calm,-,N/A,,Clear,0,2013-02-24 13:32:00
7:52 AM,3.2,-0.4,85,30.01,10.0,Calm,Calm,-,N/A,,Clear,0,2013-02-24 13:52:00
8:13 AM,3.2,-0.4,85,30.01,10.0,Calm,Calm,-,N/A,,Clear,0,2013-02-24 14:13:00
8:32 AM,3.2,-0.4,85,30.01,10.0,Calm,Calm,-,N/A,,Scattered Clouds,0,2013-02-24 14:32:00
8:53 AM,3.2,1.4,92,30.02,10.0,Calm,Calm,-,N/A,,Scattered Clouds,0,2013-02-24 14:53:00
9:13 AM,5.0,1.4,85,30.02,10.0,Calm,Calm,-,N/A,,Clear,0,2013-02-24 15:13:00
9:32 AM,5.0,1.4,85,30.04,10.0,Calm,Calm,-,N/A,,Clear,0,2013-02-24 15:32:00
9:53 AM,6.8,3.2,85,30.05,10.0,Calm,Calm,-,N/A,,Clear,0,2013-02-24 15:53:00
10:13 AM,8.6,5.0,85,30.05,10.0,Calm,Calm,-,N/A,,Clear,0,2013-02-24 16:13:00
10:32 AM,8.6,6.8,92,30.05,10.0,Calm,Calm,-,N/A,,Clear,0,2013-02-24 16:32:00
10:53 AM,10.4,8.6,92,30.05,10.0,Calm,Calm,-,N/A,,Clear,0,2013-02-24 16:53:00
11:13 AM,12.2,10.4,92,30.05,10.0,Calm,Calm,-,N/A,,Clear,0,2013-02-24 17:13:00
11:32 AM,12.2,10.4,92,30.06,10.0,SW,3.5,-,N/A,,Clear,230,2013-02-24 17:32:00
11:53 AM,14.0,10.4,86,30.06,10.0,Calm,Calm,-,N/A,,Clear,0,2013-02-24 17:53:00
12:12 PM,15.8,12.2,86,30.06,10.0,Calm,Calm,-,N/A,,Clear,0,2013-02-24 18:12:00
12:32 PM,15.8,14.0,93,30.06,10.0,Calm,Calm,-,N/A,,Clear,0,2013-02-24 18:32:00
12:53 PM,17.6,15.8,93,30.06,10.0,Calm,Calm,-,N/A,,Clear,0,2013-02-24 18:53:00
1:12 PM,17.6,15.8,93,30.07,10.0,WSW,3.5,-,N/A,,Clear,240,2013-02-24 19:12:00
1:32 PM,19.4,14.0,80,30.06,10.0,Calm,Calm,-,N/A,,Clear,0,2013-02-24 19:32:00
1:53 PM,21.2,14.0,74,30.05,10.0,SW,3.5,-,N/A,,Clear,220,2013-02-24 19:53:00
2:12 PM,21.2,12.2,68,30.05,10.0,SSW,4.6,-,N/A,,Clear,200,2013-02-24 20:12:00
2:33 PM,21.2,12.2,68,30.05,10.0,SSW,4.6,-,N/A,,Clear,200,2013-02-24 20:33:00
2:53 PM,21.2,12.2,68,30.05,10.0,SSW,4.6,-,N/A,,Clear,210,2013-02-24 20:53:00
3:12 PM,21.2,14.0,74,30.05,10.0,South,3.5,-,N/A,,Clear,190,2013-02-24 21:12:00
3:33 PM,21.2,12.2,68,30.04,10.0,South,3.5,-,N/A,,Clear,180,2013-02-24 21:33:00
3:53 PM,21.2,12.2,68,30.04,10.0,South,3.5,-,N/A,,Clear,180,2013-02-24 21:53:00
4:12 PM,19.4,12.2,74,30.04,10.0,SSW,3.5,-,N/A,,Clear,210,2013-02-24 22:12:00
4:33 PM,17.6,12.2,79,30.04,10.0,Calm,Calm,-,N/A,,Clear,0,2013-02-24 22:33:00
4:53 PM,19.4,12.2,74,30.03,10.0,Calm,Calm,-,N/A,,Clear,0,2013-02-24 22:53:00
5:12 PM,17.6,12.2,79,30.04,10.0,Calm,Calm,-,N/A,,Clear,0,2013-02-24 23:12:00
5:33 PM,17.6,12.2,79,30.04,10.0,Calm,Calm,-,N/A,,Clear,0,2013-02-24 23:33:00
5:52 PM,17.6,12.2,79,30.05,10.0,Calm,Calm,-,N/A,,Clear,0,2013-02-24 23:52:00
6:13 PM,17.6,12.2,79,30.05,10.0,Calm,Calm,-,N/A,,Clear,0,2013-02-25 00:13:00
6:33 PM,17.6,12.2,79,30.05,10.0,Calm,Calm,-,N/A,,Clear,0,2013-02-25 00:33:00
6:52 PM,17.6,12.2,79,30.06,10.0,Calm,Calm,-,N/A,,Clear,0,2013-02-25 00:52:00
7:12 PM,17.6,12.2,79,30.06,10.0,Calm,Calm,-,N/A,,Clear,0,2013-02-25 01:12:00
7:29 PM,15.8,12.2,86,30.06,10.0,Calm,Calm,-,N/A,,Clear,0,2013-02-25 01:29:00
7:52 PM,14.0,10.4,86,30.06,10.0,Calm,Calm,-,N/A,,Clear,0,2013-02-25 01:52:00
8:13 PM,10.4,8.6,92,30.07,10.0,Calm,Calm,-,N/A,,Clear,0,2013-02-25 02:13:00
8:32 PM,10.4,8.6,92,30.07,7.0,Calm,Calm,-,N/A,,Clear,0,2013-02-25 02:32:00
8:52 PM,12.2,10.4,92,30.06,4.0,Calm,Calm,-,N/A,,Clear,0,2013-02-25 02:52:00
9:13 PM,10.4,8.6,92,30.06,4.0,Calm,Calm,-,N/A,,Clear,0,2013-02-25 03:13:00
9:32 PM,8.6,6.8,92,30.07,7.0,Calm,Calm,-,N/A,,Clear,0,2013-02-25 03:32:00
9:53 PM,8.6,6.8,92,30.07,1.2,Calm,Calm,-,N/A,,Mostly Cloudy,0,2013-02-25 03:53:00
10:13 PM,6.8,5.0,92,30.08,4.0,Calm,Calm,-,N/A,,Scattered Clouds,0,2013-02-25 04:13:00
10:32 PM,6.8,5.0,92,30.07,1.5,Calm,Calm,-,N/A,,Overcast,0,2013-02-25 04:32:00
10:52 PM,5.0,1.4,85,30.07,0.2,South,3.5,-,N/A,Fog,Light Freezing Fog,190,2013-02-25 04:52:00
11:13 PM,6.8,5.0,92,30.07,4.0,South,3.5,-,N/A,,Scattered Clouds,180,2013-02-25 05:13:00
11:32 PM,6.8,3.2,85,30.08,7.0,Calm,Calm,-,N/A,,Clear,0,2013-02-25 05:32:00
11:53 PM,3.2,1.4,92,30.07,7.0,South,3.5,-,N/A,,Clear,170,2013-02-25 05:53:00